RH
23 32 40 33 29 15 16 23 24 30 31 31 33 29 26 18 35 50 51 45 43 41 41 48 51 53 58 69 81 84 84 88 81 79 89 79 69 63 71 71 66 64 66
31 38 36 32 23 14 13 20 22 26 31 31 31 30 30 21 34 54 55 47 48 45 43 37 37 49 60 71 81 81 71 64 65 69 76 74 59 54 69 72 67 64 57
31 34 32 29 20 12 13 16 20 30 31 30 32 30 26 23 30 54 60 55 50 50 45 44 39 41 57 61 68 67 64 58 54 59 63 65 60 57 73 76 70 63 52
31 28 33 22 15 12 12 11 19 23 22 28 30 28 24 23 25 44 58 60 56 55 54 49 44 41 40 38 42 47 53 54 54 58 60 60 60 64 76 78 67 58 55
28 33 30 24 17 12 12 9 11 12 14 17 20 20 20 21 26 36 54 63 58 58 58 57 56 51 45 43 40 42 50 49 48 50 51 56 69 75 82 79 64 54 60
27 26 20 16 14 12 13 10 8 9 11 12 14 16 18 19 21 33 52 56 62 58 57 57 58 62 56 54 49 40 38 43 43 44 55 60 73 84 84 71 59 32 30
22 21 20 12 14 13 14 12 10 9 9 12 12 15 17 19 22 31 47 61 61 61 59 58 62 64 68 69 65 55 36 28 39 54 61 57 73 91 85 66 52 41 36
23 22 21 21 14 14 13 13 11 10 10 11 11 13 16 19 22 27 46 52 55 61 64 68 71 70 68 68 62 63 66 36 50 58 70 65 83 97 97 80 63 57 38
24 22 19 18 15 15 14 14 14 13 13 12 11 11 15 17 22 29 43 57 60 62 66 68 74 78 79 77 68 68 73 71 54 68 72 83 94 99 99 92 66 53 35
26 26 23 19 16 16 16 16 16 16 15 14 12 12 14 16 22 31 40 56 64 73 70 66 77 78 86 80 72 76 83 81 71 66 87 96 98 97 93 89 81 62 38
26 27 21 20 18 18 18 17 18 18 18 16 16 14 13 15 18 26 37 51 69 77 75 75 77 75 71 72 66 76 92 88 84 84 74 97 93 99 96 88 54 55 38
22 33 28 24 23 21 19 18 18 19 20 19 18 20 17 15 16 20 24 30 47 67 76 79 82 73 67 69 75 66 74 83 86 87 93 93 87 83 93 94 84 30 25
23 38 38 30 27 26 21 19 19 20 21 21 20 22 24 18 15 20 29 32 36 38 52 62 74 76 74 69 71 68 65 73 80 90 97 99 96 80 98 89 45 37 17
26 34 44 38 28 31 23 20 20 20 21 22 22 22 25 26 16 16 18 32 42 43 44 46 54 73 80 71 69 74 71 62 68 85 99 98 94 92 96 92 62 30 17
25 23 27 34 38 33 25 21 21 20 22 24 23 22 23 27 20 16 16 18 31 43 51 51 55 61 75 73 72 73 74 65 74 78 88 94 98 97 98 98 61 30 19
24 20 22 25 36 35 28 25 22 22 23 24 25 24 22 26 21 17 15 15 16 27 45 59 66 67 66 68 71 70 76 73 70 77 84 92 95 100 98 99 66 30 22
22 22 23 23 26 36 39 40 28 25 24 24 25 26 24 24 25 20 22 23 20 15 25 39 50 60 64 67 65 68 65 74 74 74 80 92 89 98 99 96 60 30 23
30 30 29 25 29 43 51 57 59 47 30 25 26 27 26 24 27 22 22 24 18 14 13 18 23 31 49 56 56 61 62 69 78 76 82 88 86 97 100 98 82 53 23
38 36 31 27 31 33 33 47 50 56 59 51 36 29 28 26 26 26 24 25 21 16 11 11 12 16 28 35 55 65 65 67 80 79 87 92 90 100 99 99 67 42 26
27 34 31 29 27 26 27 32 44 49 52 58 50 51 40 26 25 26 27 29 25 24 13 11 13 16 19 32 54 61 70 78 72 74 81 87 99 100 99 89 77 37 26
29 25 23 23 22 23 25 26 28 32 57 60 47 51 47 26 27 26 28 32 31 29 22 13 15 17 18 28 57 59 70 76 69 72 81 83 100 100 99 78 67 31 25
30 28 29 28 30 25 23 22 22 28 33 49 58 51 54 38 27 26 30 34 37 35 32 18 15 18 20 33 56 68 74 72 71 69 81 91 99 100 99 82 54 28 24
35 28 31 32 33 31 28 25 23 26 29 58 68 58 53 48 31 26 30 36 38 41 36 27 17 20 23 28 61 78 81 76 75 75 82 83 100 99 99 95 61 28 24
32 30 30 31 34 32 31 33 34 25 25 33 46 43 60 48 46 29 29 34 38 42 42 38 20 21 23 24 47 70 83 88 85 72 78 85 99 98 100 96 64 28 24
31 30 30 32 33 34 34 35 38 40 43 47 43 53 56 59 48 42 37 30 36 38 45 44 26 21 26 28 37 69 86 95 95 84 92 91 100 99 100 99 92 37 28
35 32 33 33 32 34 35 35 38 38 39 46 66 84 83 68 50 44 35 35 31 34 40 48 35 21 26 30 36 62 80 78 84 98 100 99 100 100 100 100 93 60 34
Wind_Speed
9 8 8 5 9 12 8 11 12 10 10 10 12 12 10 9 11 10 7 6 6 4 4 5 6 7 9 9 9 8 8 6 6 5 5 3 3 5 5 6 6 7 7
11 10 6 5 9 13 8 10 12 11 11 12 12 12 11 9 10 11 8 8 6 6 5 4 6 7 9 10 10 9 8 7 6 5 5 4 5 5 6 7 7 7 7
13 12 4 6 9 13 11 11 12 13 13 13 13 13 12 10 11 12 11 9 8 8 9 7 7 7 9 10 10 10 9 8 8 8 8 7 7 7 7 7 8 8 8
15 7 4 5 10 12 12 11 13 14 15 14 14 14 13 11 11 13 13 11 9 8 9 8 8 8 9 9 10 10 9 9 9 9 8 8 8 8 8 9 9 9 8
9 5 6 9 10 11 11 10 11 13 13 14 14 14 13 12 11 12 13 12 11 9 9 9 9 9 9 9 8 8 9 9 9 9 9 10 9 10 11 10 10 9 9
6 7 9 9 7 8 9 8 9 9 11 11 12 13 13 12 12 12 13 14 13 10 10 10 9 9 9 7 7 8 9 8 8 9 9 10 10 12 13 13 11 8 8
10 10 10 10 8 6 7 8 8 8 10 11 12 13 12 12 13 13 14 15 15 13 11 11 9 9 8 6 6 6 7 7 9 8 10 12 12 15 17 15 11 9 8
11 11 13 15 11 6 5 6 7 7 9 9 10 11 12 12 13 14 15 16 16 14 13 11 9 10 8 6 7 8 8 6 7 10 11 13 14 19 24 16 10 9 8
10 10 11 11 10 7 5 4 5 6 7 8 9 9 11 11 13 14 16 17 17 16 14 13 11 11 11 9 9 9 11 10 10 12 13 14 15 24 16 11 8 9 9
13 10 10 11 10 8 7 5 5 5 6 7 7 8 10 11 12 14 17 18 18 17 16 15 14 13 12 10 9 10 14 13 12 12 13 14 17 18 18 13 11 10 10
19 16 16 12 12 9 9 8 7 6 6 6 7 8 9 11 12 14 16 18 19 18 18 17 15 13 12 12 11 9 10 12 14 15 17 16 14 16 12 12 12 14 12
24 20 16 16 15 12 11 11 10 8 6 6 7 7 9 11 12 14 16 17 19 18 19 19 19 16 14 13 13 11 14 16 14 16 26 27 19 19 21 15 15 12 12
22 21 17 18 17 15 14 14 14 11 8 6 7 7 9 11 12 12 15 17 18 18 19 20 20 18 16 15 15 14 15 15 15 14 14 23 23 21 16 14 13 13 12
24 22 20 20 21 19 18 17 17 16 12 9 8 8 9 11 13 12 14 15 16 16 18 20 20 21 20 19 18 17 18 17 16 15 11 20 26 27 26 18 15 15 13
23 21 22 25 25 23 22 21 21 20 16 13 12 9 10 11 12 14 13 14 14 15 17 19 20 21 22 21 21 20 19 19 17 16 19 20 24 32 28 21 19 16 16
23 22 23 24 29 28 27 26 24 23 20 18 17 13 12 12 12 13 14 14 14 13 14 17 20 21 22 24 24 23 22 23 21 21 17 21 25 29 31 24 19 18 18
27 26 27 24 23 25 27 26 29 25 24 22 21 18 15 14 13 13 13 14 14 15 16 18 20 21 23 25 26 25 25 24 24 22 27 24 26 29 28 22 20 17 19
26 27 27 28 21 20 20 22 22 23 25 24 23 22 20 17 15 14 14 14 14 15 16 18 20 22 24 26 27 27 27 27 25 23 27 26 25 28 30 27 22 19 20
29 29 30 32 29 25 24 22 21 22 23 23 26 25 24 21 18 16 14 14 15 15 15 18 19 20 23 25 26 28 28 27 27 24 22 27 27 28 27 20 22 20 21
34 35 35 36 34 32 30 28 28 28 26 25 23 25 27 24 21 19 16 15 15 14 14 16 18 20 22 24 25 27 26 28 29 24 22 24 24 29 28 23 23 21 23
38 43 45 44 42 41 38 35 32 32 31 28 25 24 26 26 24 22 19 16 15 15 14 15 18 20 22 23 25 29 29 31 30 28 26 24 28 33 30 25 24 23 25
39 44 45 46 38 45 48 43 40 34 33 33 31 28 26 24 25 24 24 19 17 16 16 16 17 18 20 22 26 28 31 33 31 28 26 26 25 30 30 27 25 25 26
45 46 45 38 34 35 36 38 38 38 35 39 39 33 29 25 26 27 28 23 20 18 18 18 18 18 20 21 24 28 33 35 30 28 26 22 26 30 33 28 25 25 27
50 47 42 41 36 37 37 38 36 34 37 38 34 30 29 26 24 26 30 30 25 22 20 20 20 19 20 21 23 26 31 33 35 31 33 32 30 35 36 29 25 25 26
43 41 41 42 39 36 37 40 36 35 34 36 34 29 29 29 28 27 28 34 32 29 24 23 22 21 22 23 24 26 28 32 34 33 36 37 38 35 37 31 26 26 26
40 41 40 40 38 37 38 38 39 40 38 36 37 39 33 31 29 30 32 35 37 34 29 25 25 24 23 24 25 27 28 28 28 30 34 33 36 37 42 36 33 26 26
Wind_Direction
249 225 209 256 318 332 278 266 263 254 246 248 261 270 276 258 241 240 219 230 226 218 204 198 204 206 199 203 204 198 200 201 211 215 241 189 176 177 162 164 150 145 145
230 221 238 296 330 334 290 255 255 248 243 251 256 261 270 262 240 237 226 235 227 222 237 227 220 215 214 212 206 208 208 206 208 218 231 229 216 217 179 171 161 160 162
222 219 237 302 330 332 308 260 252 241 246 247 250 260 260 252 236 231 229 227 226 228 237 235 229 220 218 220 220 219 221 221 216 210 217 221 227 215 189 181 176 172 178
220 228 262 308 321 328 310 271 248 248 248 249 254 261 251 245 238 231 232 229 229 222 222 220 227 229 231 232 231 231 231 223 216 213 218 232 221 211 197 197 188 185 186
227 225 268 299 313 319 307 284 260 257 256 252 252 249 246 243 238 234 233 231 230 226 229 233 245 244 242 240 241 238 232 228 225 222 222 217 219 208 202 201 198 186 186
230 258 281 293 310 312 302 285 269 255 248 247 246 246 245 244 241 234 233 236 237 232 235 241 248 247 240 237 237 243 247 246 238 226 215 218 217 206 204 198 192 197 215
273 277 284 289 297 297 299 287 274 260 256 246 249 247 247 245 241 234 233 235 239 236 239 243 244 236 229 229 246 265 265 252 245 221 210 218 216 208 200 194 198 212 217
278 279 276 274 276 279 285 280 276 266 257 252 256 254 247 245 243 238 233 236 237 234 239 240 242 242 232 253 276 268 264 236 247 238 216 220 214 212 187 189 210 231 241
264 272 284 257 260 266 250 248 258 259 263 263 262 262 251 248 244 238 236 235 238 236 243 239 235 251 246 263 284 272 241 233 239 249 234 223 209 211 164 174 226 246 260
250 256 278 261 253 261 253 232 236 248 261 263 267 263 256 251 247 238 237 236 239 235 243 244 250 251 249 269 281 267 258 233 231 238 238 224 221 244 280 241 246 253 261
245 248 262 256 255 262 262 244 237 240 251 260 269 271 268 261 255 247 241 241 239 238 242 247 244 244 253 263 272 258 233 247 250 258 252 239 247 241 220 217 261 248 254
250 245 251 247 252 259 261 256 246 244 251 251 265 277 275 266 258 256 250 248 245 240 242 246 246 254 257 262 264 263 255 261 262 268 255 250 251 258 268 262 272 251 245
254 240 242 242 248 258 250 249 252 247 248 249 259 276 280 276 263 260 259 255 252 248 245 245 249 258 258 258 259 260 261 263 268 274 259 240 250 257 250 244 259 249 236
240 244 236 240 241 254 254 244 250 250 249 250 256 271 283 282 270 263 264 258 255 248 249 247 248 249 253 256 255 257 256 265 261 260 269 244 243 253 248 234 249 242 233
245 248 246 247 247 247 250 246 247 253 254 252 255 266 279 286 277 267 267 265 261 251 247 246 247 249 253 257 257 255 254 257 260 260 266 272 264 243 246 230 247 241 230
240 242 248 244 240 236 238 242 243 250 252 256 257 260 272 281 282 272 270 271 267 261 252 244 244 245 248 253 253 253 256 253 254 254 259 270 281 265 241 232 237 233 227
246 247 252 249 243 237 235 240 240 246 251 255 261 258 264 271 280 275 276 277 273 262 254 250 248 246 249 253 258 259 260 256 255 256 261 267 274 257 238 211 227 231 226
235 238 244 247 244 235 238 236 237 243 250 251 258 261 261 263 270 276 280 282 274 270 265 259 257 255 253 255 259 262 262 257 254 260 262 270 275 250 226 212 230 235 224
231 234 240 247 241 236 241 240 243 245 251 251 254 260 262 261 263 272 276 280 280 279 272 268 267 265 260 262 259 260 261 263 257 262 268 269 260 220 229 216 228 230 227
236 236 239 242 243 247 240 238 240 244 246 251 260 260 260 257 259 265 270 275 280 285 282 278 277 272 267 262 261 260 259 257 262 265 269 280 240 214 216 222 225 230 228
247 246 241 243 243 244 244 242 241 247 246 245 259 260 261 255 255 260 265 268 277 284 286 280 274 274 270 261 257 257 257 257 262 258 269 271 227 223 211 220 225 227 227
242 240 243 243 240 246 246 251 248 242 248 244 245 250 258 259 255 255 261 262 271 281 287 289 287 282 273 262 258 259 260 259 260 259 267 261 247 229 222 221 223 227 224
245 242 240 235 233 236 241 242 241 240 240 238 239 243 244 258 255 251 256 258 264 274 284 287 288 287 276 271 258 258 263 264 265 261 256 273 257 221 222 221 225 228 226
234 235 242 236 234 230 233 237 240 247 246 250 251 258 252 259 264 257 257 260 260 267 277 284 285 285 280 279 267 260 265 266 265 264 257 263 242 238 228 224 227 229 228
239 236 237 239 236 242 245 249 240 237 233 236 245 247 255 250 256 261 264 262 259 263 269 277 282 282 282 276 272 266 263 264 266 266 268 253 232 229 231 222 225 228 230
229 231 235 237 241 240 242 247 250 246 240 234 237 240 245 249 255 260 271 261 259 260 263 270 278 282 283 280 275 265 265 261 264 262 246 260 238 232 217 219 226 232 229